RH
70 71 62 68 73 74 82 78 89 57 58 41 41 46 40 41 42 43 38 35 34 32 32 34 35 35 38 42 46 49 52 55 58 64 77 90 90 73 79 90 99 97 99 98
60 53 60 58 64 68 67 63 74 58 60 51 53 53 49 46 47 44 42 39 35 33 33 38 35 41 41 39 47 48 54 57 58 56 62 83 83 85 92 85 89 92 93 92
75 46 61 58 37 44 54 60 69 71 56 56 66 71 69 55 52 44 40 40 37 36 32 38 40 46 46 45 40 46 52 57 59 59 60 66 78 83 80 87 90 90 91 89
87 81 94 40 32 27 27 42 52 60 62 60 68 72 77 57 49 45 39 36 36 37 38 39 43 46 45 51 53 42 46 48 51 60 60 63 69 77 81 79 82 83 89 87
95 84 61 39 44 52 48 27 28 43 59 67 69 69 56 50 50 46 45 34 38 42 43 41 37 32 32 39 47 59 56 48 54 53 57 64 70 68 67 74 77 82 80 81
90 93 83 55 75 77 69 55 31 39 41 53 68 66 47 53 49 42 45 43 41 45 46 43 38 37 36 37 42 47 64 58 49 56 60 60 64 74 76 73 70 69 71 79
82 89 78 83 85 90 92 74 60 50 57 61 51 45 61 55 44 43 47 55 48 45 47 48 45 44 43 42 42 45 51 68 65 60 57 61 65 68 69 69 73 73 73 72
79 83 87 82 79 94 80 65 83 64 45 47 49 60 67 63 60 57 52 56 48 45 49 51 49 43 44 46 49 52 56 62 75 78 76 71 70 70 70 70 70 74 72 76
95 87 86 94 95 89 87 84 77 91 66 74 81 76 73 78 75 64 62 57 57 56 54 50 47 46 45 49 53 56 63 66 73 81 85 83 80 77 75 73 75 76 75 70
98 87 98 98 98 98 77 82 88 95 87 85 91 89 83 81 83 76 66 66 65 62 59 52 47 46 49 52 53 55 58 61 61 71 74 73 72 73 70 68 67 63 63 68
93 96 95 94 96 92 94 96 91 89 83 84 88 90 91 88 85 82 80 77 72 68 66 64 62 61 63 64 64 66 68 73 79 79 82 80 75 73 72 70 68 68 68 66
97 99 99 99 98 98 97 98 98 98 98 98 95 94 95 92 90 88 87 85 83 79 78 77 77 76 76 75 76 77 79 80 86 89 91 93 92 88 84 78 72 69 69 70
99 99 99 99 99 98 97 98 98 97 98 97 98 96 95 93 91 88 87 88 88 92 90 91 91 87 86 86 88 91 91 93 96 96 95 94 94 94 92 89 85 82 79 75
99 98 97 98 99 99 98 98 98 98 98 98 98 97 98 97 97 97 97 98 98 98 98 97 97 97 96 94 90 90 93 94 94 96 97 97 95 94 94 93 90 88 90 89
99 99 99 99 97 98 98 98 97 96 97 97 97 97 97 97 97 97 97 96 94 92 92 90 88 86 87 88 89 89 88 86 85 85 88 89 91 91 92 92 91 91 90 91
97 98 94 94 97 95 95 94 94 95 96 97 96 97 96 93 91 88 84 82 81 80 78 75 75 76 75 74 73 74 76 77 78 79 80 81 82 84 86 86 86 86 85 86
93 91 90 91 89 89 90 91 92 90 86 83 80 77 73 73 72 73 73 72 69 67 66 65 64 62 59 57 56 57 56 55 54 54 54 54 55 55 55 55 56 58 59 61
82 81 80 82 83 83 82 82 81 79 80 81 77 74 72 69 70 69 67 65 64 61 58 55 54 52 51 48 47 47 46 45 44 43 42 42 41 41 41 42 43 43 43 44
73 73 75 74 73 73 74 73 74 72 69 68 66 66 66 64 63 61 59 56 55 55 54 53 52 51 49 47 45 44 42 41 40 40 39 38 37 36 34 33 32 32 32 31
64 63 65 65 63 67 69 68 66 65 65 63 63 62 60 60 59 59 58 58 56 56 55 53 52 51 51 50 48 47 45 43 41 40 37 36 35 34 33 32 31 30 28 25
61 60 61 60 57 58 57 59 60 60 61 60 59 58 57 56 54 51 49 49 48 45 46 42 40 40 42 45 40 39 39 39 38 37 36 35 35 35 34 33 32 31 30 29
57 55 53 53 50 49 49 53 53 53 53 53 52 51 50 48 46 44 46 44 43 42 41 38 35 37 38 37 33 30 29 28 28 28 28 28 27 27 26 26 25 25 24 23
55 53 51 50 48 45 43 44 43 45 44 44 44 44 44 43 43 41 40 40 39 38 37 36 35 34 33 31 28 27 26 26 26 26 27 27 27 28 27 27 27 27 26 26
51 48 45 46 45 43 42 41 40 40 41 41 41 41 40 40 39 40 40 39 39 38 37 36 35 34 32 28 28 28 27 27 27 27 27 28 29 29 30 32 33 36 36 38
47 46 45 44 43 42 42 41 41 45 42 42 43 43 42 44 42 41 41 40 40 40 39 36 36 34 33 33 32 31 31 31 31 32 33 33 34 36 39 42 45 46 44 41
49 49 49 49 48 47 46 45 46 44 44 42 42 44 45 44 44 43 43 44 43 43 42 42 43 44 43 43 42 41 40 40 40 41 42 43 45 48 51 56 54 49 44 43
51 52 52 52 53 52 52 54 53 50 51 50 49 50 50 47 46 46 46 45 47 48 50 51 52 52 52 53 53 53 53 53 53 54 56 57 59 61 65 64 57 52 53 53